Starlink 5320

operational
NORAD ID: 55289 Int'l Des: 2023-010 Owner: SPXS Country: US Constellation: starlink
LEOCIRCULAR

Über Starlink 5320

Beschreibung wird geladen...

Live-Position

3D-Globus wird geladen...

Nächste Überflüge

Höhenverlauf

Altitude vs Time

uPlot chart will show altitude changes over time

Zweizeiliger Elementsatz

1 55289U 23010W 26036.62223503 .00000338 00000-0 36121-4 0 9996
2 55289 69.9999 105.3995 0002984 268.3487 91.7330 14.98333583168460
Epoch: 5. Feb. 2026 • Age: 13 hours

Aktueller Status

Höhe 574.3 km
Geschwindigkeit 7.57 km/s
Subsatellitenpunkt 13.53°N, 84.49°W
Startdatum 19. Jan. 2023
Alter 3 years
Typ internet

Technische Details

Klassifizierung Payload
Masse 305.00 kg
Trockenmasse 290.00 kg
Gesamtmasse 305.00 kg
Länge 0.20 m
Durchmesser 2.80 m
Spannweite 9.00 m
Form Box + pan
Hersteller SPXS
Bus-Typ Starlink
Phasenstatus In Orbit
Besitzer/Staat SPXS/US

Große Konstellationen

Loading constellations...